Location: Newark
(25.6108°S, 54.5803°W)
Time: 20:29:30
(UTC+00:00)

A-11 Canister half - Pass Details

Date: 01 November 2020
Orbit: 1516 x 1684 km, 47.2° (Epoch: 03 December)

Event Time Altitude Azimuth Distance (km) Brightness Sun altitude
Rises 08:00:48 0° 341° (NNW) 4,678 11.1 -11.2°
Reaches altitude 10° 08:04:10 10° 349° (N) 3,685 10.7 -10.4°
Maximum altitude 08:12:21 36° 52° (NE) 2,226 10.2 -8.7°
Drops below altitude 10° 08:20:32 10° 114° (ESE) 3,693 12.8 -7.0°
Sets 08:23:53 0° 122° (ESE) 4,689 13.6 -6.3°
